Simultaneous Nadir Overpasses (SNOs) Predictions

Prediction of SNOs between METOP-A and TERRA Satellite Orbit:

Table of predicted SNOs for the next 14.0 days since TLE Epoch: 12/16/2017
Index Date (METOP-A) Time (METOP-A) Lat,Lon (METOP-A) SZA (METOP-A ) Date (TERRA) Time (TERRA) Lat,Lon (TERRA) SZA (TERRA ) Distance(km) Time Diff (sec)
1 12/16/2017 20:22:32 -81.38, 103.03 72.42 12/16/2017 20:22:45 -81.37, 103.05 72.41 0.89 13
2 12/16/2017 21:13:11 81.38, -89.08 107.65 12/16/2017 21:12:11 81.38, -89.21 107.61 2.15 60
3 12/19/2017 15:56:50 -81.38, 169.96 72.32 12/19/2017 15:57:01 -81.39, 169.80 72.33 2.74 11
4 12/19/2017 16:47:30 81.38, -22.57 107.70 12/19/2017 16:46:27 81.39, -22.46 107.69 2.17 63
5 12/22/2017 11:31:09 -81.38,-123.92 72.38 12/22/2017 11:31:19 -81.38,-124.01 72.39 1.70 10
6 12/22/2017 12:21:49 81.38, 43.53 107.64 12/22/2017 12:20:45 81.38, 43.73 107.63 3.30 64
7 12/25/2017 07:05:29 -81.38, -57.82 72.50 12/25/2017 07:05:39 -81.37, -57.62 72.48 3.23 10
8 12/25/2017 07:56:08 81.38, 110.00 107.56 12/25/2017 07:55:05 81.38, 110.11 107.54 1.83 63
9 12/28/2017 02:39:47 -81.38, 9.05 72.60 12/28/2017 02:40:00 -81.38, 8.97 72.60 1.46 13




NCC Satellite Simultaneous Nadir Overpasses (SNOs) Prediction Service
